Location: Beuvrequen
(50.8014°N, 1.6652°E)
Time: 02:00:41
(UTC+00:00)

Cosmos 405 - Pass Details

Date: 16 October 2021
Orbit: 445 x 455 km, 81.3° (Epoch: 05 December)

Event Time Altitude Azimuth Distance (km) Brightness Sun altitude
Rises 17:36:31 0° 189° (S) 2,438 6.8 -6.7°
Reaches altitude 10° 17:38:34 10° 189° (S) 1,571 5.8 -7.0°
Maximum altitude 17:41:59 84° 102° (ESE) 456 2.8 -7.6°
Drops below altitude 10° 17:45:27 10° 14° (NNE) 1,582 5.5 -8.1°
Sets 17:47:31 0° 13° (NNE) 2,458 6.5 -8.5°
